Regional Weather Roundup
Issued by NWS

Home | Current Version | Previous Version | Text Only | Print | Product List | Glossary Off
Versions: 1 2 3 4 5 6 7 8 9 10 11 12 13 14 15 16 17 18 19 20 21 22 23 24 25 26 27 28 29 30 31 32 33 34 35 36 37 38 39 40 41 42 43 44 45 46 47 48 49 50

000
ASUS43 KBIS 240102
RWRND

NORTH DAKOTA REGIONAL WEATHER ROUNDUP
NATIONAL WEATHER SERVICE BISMARCK ND
800 PM CDT WED AUG 23 2017

NOTE: "FAIR" INDICATES FEW OR NO CLOUDS BELOW 12,000 FEET WITH NO
SIGNIFICANT WEATHER AND/OR OBSTRUCTIONS TO VISIBILITY.


NDZ001>003-009>011-017-240200-
NORTHWEST NORTH DAKOTA

CITY           SKY/WX    TMP DP  RH WIND       PRES   REMARKS
WILLISTON      CLEAR     89  46  22 CALM      29.89F
MINOT          CLEAR     76  51  41 NE20G25   29.92R
MINOT AFB      CLEAR     76  51  41 E15       29.92R
$$

NDZ018>021-031>035-040>046-240200-
SOUTHWEST NORTH DAKOTA

CITY           SKY/WX    TMP DP  RH WIND       PRES   REMARKS
BISMARCK       CLEAR     76  61  59 SE6       29.94S
DICKINSON      CLEAR     78  53  41 E14       29.93S
GARRISON         N/A     75  59  57 S8        29.91F
HETTINGER ARPT CLEAR     79  53  40 E10       29.96F
$$

NDZ004>008-012>016-024-026-027-054-240200-
NORTHEAST NORTH DAKOTA

CITY           SKY/WX    TMP DP  RH WIND       PRES   REMARKS
GRAND FORKS    CLOUDY    61  51  70 E20       30.01F
GRND FRKS AFB  MOCLDY    62  48  60 E9G24     30.03S
DEVILS LAKE    CLOUDY    63  53  70 E21G32    30.00R
$$

NDZ022-023-025-028>030-036>039-047>053-240200-
SOUTHEAST NORTH DAKOTA

CITY           SKY/WX    TMP DP  RH WIND       PRES   REMARKS
FARGO          CLOUDY    72  52  49 SE6       29.99R
JAMESTOWN      CLEAR     68  57  68 SE7       29.97R
$$





USA.gov is the U.S. government's official web portal to all federal, state and local government web resources and services.